TimeMST,TemperatureF,Dew PointF,Humidity,Sea Level PressureIn,VisibilityMPH,Wind Direction,Wind SpeedMPH,Gust SpeedMPH,PrecipitationIn,Events,Conditions,WindDirDegrees,DateUTC
12:53 AM,28.0,18.0,66,30.21,10.0,WSW,12.7,-,N/A,,Clear,240,2013-02-03 07:53:00
1:53 AM,28.9,18.0,64,30.17,10.0,SSW,12.7,-,N/A,,Clear,210,2013-02-03 08:53:00
2:53 AM,28.0,18.0,66,30.15,10.0,SW,13.8,-,N/A,,Clear,220,2013-02-03 09:53:00
3:53 AM,27.0,18.0,69,30.13,10.0,SW,12.7,-,N/A,,Clear,220,2013-02-03 10:53:00
4:53 AM,27.0,18.0,69,30.13,10.0,SW,11.5,-,N/A,,Clear,220,2013-02-03 11:53:00
5:53 AM,28.0,18.0,66,30.12,10.0,SW,12.7,-,N/A,,Clear,220,2013-02-03 12:53:00
6:53 AM,28.9,18.0,64,30.07,10.0,SSW,16.1,-,N/A,,Clear,210,2013-02-03 13:53:00
7:53 AM,32.0,18.0,56,30.03,10.0,SSW,18.4,-,N/A,,Clear,210,2013-02-03 14:53:00
8:53 AM,34.0,19.0,54,30.01,10.0,SW,17.3,-,N/A,,Clear,220,2013-02-03 15:53:00
9:53 AM,35.1,21.0,57,29.97,10.0,SW,17.3,-,N/A,,Clear,220,2013-02-03 16:53:00
10:53 AM,39.0,23.0,53,29.95,10.0,SW,16.1,-,N/A,,Clear,230,2013-02-03 17:53:00
11:53 AM,39.0,24.1,55,29.94,10.0,SW,16.1,-,N/A,,Clear,230,2013-02-03 18:53:00
12:53 PM,39.9,25.0,55,29.93,10.0,SW,12.7,-,N/A,,Clear,230,2013-02-03 19:53:00
1:53 PM,42.1,23.0,47,29.90,10.0,West,9.2,-,N/A,,Clear,280,2013-02-03 20:53:00
2:53 PM,42.1,23.0,47,29.92,10.0,NW,8.1,-,N/A,,Clear,310,2013-02-03 21:53:00
3:53 PM,41.0,24.1,51,29.93,10.0,NNW,10.4,-,N/A,,Clear,330,2013-02-03 22:53:00
4:53 PM,37.9,24.1,57,29.94,10.0,NW,11.5,-,N/A,,Clear,320,2013-02-03 23:53:00
5:53 PM,33.1,21.9,64,29.98,10.0,NW,9.2,-,N/A,,Clear,320,2013-02-04 00:53:00
6:53 PM,30.9,21.0,67,29.99,10.0,NW,9.2,-,N/A,,Clear,310,2013-02-04 01:53:00
7:53 PM,28.9,19.9,69,29.99,10.0,WNW,8.1,-,N/A,,Clear,290,2013-02-04 02:53:00
8:53 PM,30.0,19.9,66,29.99,10.0,WNW,10.4,-,N/A,,Clear,290,2013-02-04 03:53:00
9:53 PM,28.0,19.0,69,29.99,10.0,West,9.2,-,N/A,,Clear,280,2013-02-04 04:53:00
10:53 PM,24.1,18.0,77,29.99,10.0,West,6.9,-,N/A,,Clear,270,2013-02-04 05:53:00
11:53 PM,21.9,16.0,78,29.99,10.0,SW,4.6,-,N/A,,Clear,230,2013-02-04 06:53:00